When you browse on this site, cookies collect data to enhance your experience and personalize the content and advertising you see.
Visit our Privacy Policy to learn more. By continuing to use the site, you agree to this use of cookies and data.

Hourly Weather London

Today, 10 August, Monday

Time Temperature Precipitation Wind Pressure Humidity
00:00 +22°C° 0 mm 3 mps 760 mmHg 80%
01:00 +22°C° 0 mm 3 mps 759 mmHg 80%
02:00 +21°C° 0 mm 3 mps 759 mmHg 80%
03:00 +21°C° 0 mm 3 mps 759 mmHg 80%
04:00 +21°C° 0 mm 3 mps 759 mmHg 81%
05:00 +21°C° 0 mm 3 mps 759 mmHg 81%
06:00 +21°C° 0 mm 2 mps 759 mmHg 84%
07:00 +24°C° 0 mm 3 mps 759 mmHg 79%
08:00 +25°C° 0 mm 3 mps 759 mmHg 73%
09:00 +27°C° 0 mm 4 mps 759 mmHg 68%
10:00 +29°C° 0 mm 4 mps 759 mmHg 61%
11:00 +32°C° 0 mm 4 mps 759 mmHg 54%
12:00 +33°C° 0 mm 4 mps 759 mmHg 46%
13:00 +34°C° 0 mm 4 mps 758 mmHg 45%
14:00 +34°C° 0 mm 4 mps 758 mmHg 43%
15:00 +34°C° 0 mm 4 mps 758 mmHg 41%
16:00 +33°C° 0 mm 3 mps 758 mmHg 44%
17:00 +31°C° 0 mm 3 mps 758 mmHg 47%
18:00 +30°C° 0 mm 3 mps 758 mmHg 50%
19:00 +29°C° 0 mm 3 mps 758 mmHg 56%
20:00 +27°C° 0 mm 3 mps 758 mmHg 62%
21:00 +25°C° 0 mm 3 mps 759 mmHg 68%
22:00 +25°C° 0 mm 2 mps 759 mmHg 70%
23:00 +25°C° 0 mm 2 mps 759 mmHg 72%

Tomorrow, 11 August, Tuesday

Time Temperature Precipitation Wind Pressure Humidity
00:00 +24°C° 0 mm 2 mps 759 mmHg 73%
01:00 +24°C° 0 mm 2 mps 759 mmHg 74%
02:00 +24°C° 0 mm 1 mps 759 mmHg 75%
03:00 +24°C° 0 mm 1 mps 758 mmHg 76%
04:00 +24°C° 0 mm 1 mps 758 mmHg 76%
05:00 +24°C° 0 mm 2 mps 758 mmHg 76%
06:00 +24°C° 0 mm 2 mps 758 mmHg 76%
07:00 +26°C° 0 mm 2 mps 759 mmHg 70%
08:00 +27°C° 0 mm 3 mps 759 mmHg 64%
09:00 +29°C° 0 mm 3 mps 759 mmHg 59%
10:00 +31°C° 0 mm 3 mps 759 mmHg 53%
11:00 +33°C° 0 mm 3 mps 759 mmHg 47%
12:00 +35°C° 0 mm 3 mps 759 mmHg 42%
13:00 +35°C° 0 mm 3 mps 759 mmHg 41%
14:00 +35°C° 0 mm 3 mps 758 mmHg 40%
15:00 +35°C° 0 mm 3 mps 758 mmHg 39%
16:00 +34°C° 0 mm 3 mps 758 mmHg 43%
17:00 +33°C° 0 mm 3 mps 758 mmHg 47%
18:00 +31°C° 0 mm 3 mps 758 mmHg 51%
19:00 +29°C° 0.1 mm 3 mps 758 mmHg 56%
20:00 +27°C° 0.1 mm 2 mps 758 mmHg 62%
21:00 +26°C° 0.1 mm 2 mps 758 mmHg 67%
22:00 +25°C° 0 mm 2 mps 758 mmHg 68%
23:00 +25°C° 0 mm 1 mps 758 mmHg 70%

Day after tomorrow, 12 August, Wednesday

Time Temperature Precipitation Wind Pressure Humidity
00:00 +24°C° 0 mm 1 mps 758 mmHg 72%
01:00 +24°C° 0 mm 1 mps 758 mmHg 73%
02:00 +24°C° 0 mm 1 mps 758 mmHg 73%
03:00 +24°C° 0 mm 1 mps 758 mmHg 74%
04:00 +24°C° 0.1 mm 1 mps 757 mmHg 75%
05:00 +24°C° 0.1 mm 1 mps 757 mmHg 75%
06:00 +24°C° 0.1 mm 1 mps 757 mmHg 75%
07:00 +26°C° 0 mm 1 mps 757 mmHg 68%
08:00 +28°C° 0 mm 1 mps 757 mmHg 61%
09:00 +30°C° 0 mm 1 mps 757 mmHg 54%
10:00 +31°C° 0 mm 1 mps 757 mmHg 49%
11:00 +33°C° 0 mm 1 mps 757 mmHg 45%
12:00 +34°C° 0 mm 1 mps 757 mmHg 40%
13:00 +35°C° 0 mm 2 mps 757 mmHg 39%
14:00 +36°C° 0 mm 3 mps 757 mmHg 38%
15:00 +36°C° 0 mm 3 mps 757 mmHg 38%
16:00 +34°C° 0.3 mm 3 mps 757 mmHg 44%
17:00 +31°C° 0.3 mm 3 mps 756 mmHg 51%
18:00 +30°C° 0.3 mm 3 mps 756 mmHg 57%
19:00 +28°C° 0.3 mm 2 mps 756 mmHg 62%
20:00 +27°C° 0.3 mm 2 mps 757 mmHg 66%
21:00 +26°C° 0.3 mm 1 mps 757 mmHg 70%
22:00 +26°C° 0.1 mm 1 mps 757 mmHg 71%
23:00 +26°C° 0.1 mm 1 mps 756 mmHg 71%

13 August, Thursday

Time Temperature Precipitation Wind Pressure Humidity
00:00 +26°C° 0.1 mm 1 mps 756 mmHg 72%
01:00 +25°C° 0.1 mm 1 mps 756 mmHg 74%
02:00 +25°C° 0.1 mm 1 mps 756 mmHg 76%
03:00 +24°C° 0.1 mm 1 mps 756 mmHg 78%
04:00 +24°C° 0.2 mm 1 mps 756 mmHg 78%
05:00 +24°C° 0.2 mm 1 mps 756 mmHg 79%
06:00 +24°C° 0.2 mm 1 mps 756 mmHg 79%
07:00 +26°C° 0 mm 1 mps 756 mmHg 73%
08:00 +27°C° 0 mm 2 mps 756 mmHg 68%
09:00 +28°C° 0 mm 2 mps 756 mmHg 62%
10:00 +29°C° 0.1 mm 2 mps 756 mmHg 58%
11:00 +30°C° 0.1 mm 2 mps 756 mmHg 54%
12:00 +31°C° 0.1 mm 2 mps 755 mmHg 50%
13:00 +30°C° 0.7 mm 3 mps 755 mmHg 54%
14:00 +30°C° 0.7 mm 3 mps 755 mmHg 58%
15:00 +29°C° 0.7 mm 4 mps 755 mmHg 62%
16:00 +28°C° 0.7 mm 4 mps 755 mmHg 64%
17:00 +27°C° 0.7 mm 3 mps 755 mmHg 66%
18:00 +27°C° 0.7 mm 3 mps 755 mmHg 69%
19:00 +26°C° 0.2 mm 3 mps 755 mmHg 73%
20:00 +24°C° 0.2 mm 3 mps 755 mmHg 78%
21:00 +23°C° 0.2 mm 2 mps 755 mmHg 82%
22:00 +23°C° 0.3 mm 2 mps 755 mmHg 83%
23:00 +21°C° 0.3 mm 2 mps 755 mmHg 85%

14 August, Friday

Time Temperature Precipitation Wind Pressure Humidity
00:00 +22°C° 0.3 mm 1 mps 755 mmHg 86%
01:00 +22°C° 0 mm 1 mps 755 mmHg 87%
02:00 +22°C° 0 mm 1 mps 755 mmHg 87%
03:00 +22°C° 0 mm 1 mps 755 mmHg 88%
04:00 +22°C° 0 mm 1 mps 755 mmHg 88%
05:00 +22°C° 0 mm 1 mps 755 mmHg 88%
06:00 +22°C° 0 mm 1 mps 755 mmHg 87%
07:00 +21°C° 0.4 mm 2 mps 755 mmHg 85%
08:00 +23°C° 0.4 mm 2 mps 756 mmHg 83%
09:00 +22°C° 0.4 mm 3 mps 756 mmHg 81%
10:00 +24°C° 0.4 mm 3 mps 756 mmHg 78%
11:00 +25°C° 0.4 mm 3 mps 756 mmHg 75%
12:00 +25°C° 0.4 mm 4 mps 757 mmHg 72%
13:00 +25°C° 0.5 mm 4 mps 757 mmHg 72%
14:00 +25°C° 0.5 mm 4 mps 757 mmHg 72%
15:00 +25°C° 0.5 mm 4 mps 757 mmHg 72%
16:00 +25°C° 0.4 mm 4 mps 757 mmHg 73%
17:00 +24°C° 0.4 mm 3 mps 757 mmHg 74%
18:00 +24°C° 0.4 mm 3 mps 757 mmHg 76%
19:00 +22°C° 0.1 mm 3 mps 757 mmHg 79%
20:00 +21°C° 0.1 mm 3 mps 758 mmHg 82%
21:00 +21°C° 0.1 mm 2 mps 758 mmHg 86%
22:00 +20°C° 0 mm 2 mps 758 mmHg 85%
23:00 +20°C° 0 mm 2 mps 758 mmHg 84%

15 August, Saturday

Time Temperature Precipitation Wind Pressure Humidity
00:00 +20°C° 0 mm 2 mps 758 mmHg 83%
01:00 +19°C° 0 mm 2 mps 758 mmHg 84%
02:00 +19°C° 0 mm 2 mps 758 mmHg 84%
03:00 +18°C° 0 mm 2 mps 758 mmHg 84%
04:00 +18°C° 0 mm 2 mps 758 mmHg 83%
05:00 +18°C° 0 mm 2 mps 758 mmHg 83%
06:00 +18°C° 0 mm 2 mps 758 mmHg 82%
07:00 +19°C° 0 mm 3 mps 758 mmHg 77%
08:00 +21°C° 0 mm 3 mps 759 mmHg 71%
09:00 +22°C° 0 mm 3 mps 759 mmHg 65%
10:00 +24°C° 0 mm 3 mps 759 mmHg 59%
11:00 +25°C° 0 mm 3 mps 759 mmHg 53%
12:00 +27°C° 0 mm 3 mps 759 mmHg 47%
13:00 +27°C° 0 mm 3 mps 759 mmHg 45%
14:00 +27°C° 0 mm 3 mps 758 mmHg 43%
15:00 +28°C° 0 mm 3 mps 758 mmHg 40%
16:00 +27°C° 0 mm 3 mps 758 mmHg 43%
17:00 +26°C° 0 mm 3 mps 758 mmHg 46%
18:00 +25°C° 0 mm 2 mps 758 mmHg 48%
19:00 +25°C° 0 mm 2 mps 758 mmHg 51%
20:00 +24°C° 0 mm 1 mps 758 mmHg 53%
21:00 +23°C° 0 mm 1 mps 758 mmHg 55%
22:00 +22°C° 1.1 mm 1 mps 758 mmHg 62%
23:00 +20°C° 1.1 mm 2 mps 758 mmHg 70%
Show more